Location: Pic du Midi - T1M
(42.9366°N, 0.1426°E)
Time: 02:38:38
(UTC+01:00)

DX 1 - Pass Details

Date: 29 September 2021
Orbit: 618 x 630 km, 98.4° (Epoch: 19 October)

Event Time Altitude Azimuth Distance (km) Brightness Sun altitude
Rises 22:17:06 0° 356° (N) 2,899 ? -37.5°
Reaches altitude 10° 22:20:00 10° 335° (NNW) 1,989 ? -37.9°
Enters shadow 22:21:06 14° 321° (NW) 1,759 ? -38.0°
